Regional Weather Roundup
Issued by NWS Newport/Morehead, NC

Current Version | Previous Version | Graphics & Text | Print | Product List | Glossary On
Versions: 1 2 3 4 5 6 7 8 9 10 11 12 13 14 15 16 17 18 19 20 21 22 23 24 25 26 27 28 29 30 31 32 33 34 35 36 37 38 39 40 41 42 43 44 45 46 47 48 49 50
000 ASUS42 KMHX 191413 RWRMHX WEATHER ROUNDUP FOR EASTERN NORTH CAROLINA NATIONAL WEATHER SERVICE NEWPORT/MOREHEAD CITY NC 1000 AM EDT TUE SEP 19 2017 NOTE: "FAIR" INDICATES FEW OR NO CLOUDS BELOW 12,000 FEET WITH NO SIGNIFICANT WEATHER AND/OR OBSTRUCTIONS TO VISIBILITY NCZ015>017-031-032-045>047-102-103-191500- NORTH COAST CITY SKY/WX TMP DP RH WIND PRES REMARKS EDENTON CLOUDY 74 68 81 N16 29.91R ELIZABETH CITY CLOUDY 72 70 93 NW14 29.87S KITTY HAWK LGT RAIN 68 67 97 N15G26 29.81F MANTEO CLOUDY 69 67 94 N18G25 29.84R FOG $$ NCZ045>047-081-094-103-104-191500- CENTRAL COAST CITY SKY/WX TMP DP RH WIND PRES REMARKS FRISCO LGT RAIN 72 70 93 VRB7G23 29.84R $$ NCZ095-097-098-100-101-191500- SOUTHERN COAST CITY SKY/WX TMP DP RH WIND PRES REMARKS BEAUFORT NOT AVBL CEDAR ISLAND NOT AVBL JACKSONVILLE PTSUNNY 74 68 81 NW14G20 29.96R PINEY ISLAND N/A N/A N/A N/A NW16G25 29.90R WILMINGTON PTSUNNY 75 67 76 N12G18 29.97R $$ NCZ011>013-027>030-043-044-078>080-089-090>093-098-191500- COASTAL PLAIN CITY SKY/WX TMP DP RH WIND PRES REMARKS AHOSKIE N/A 69 66 89 N5 29.96R CLINTON MOSUNNY 72 67 85 N3 30.00R ELIZABETHTOWN NOT AVBL GOLDSBORO CLOUDY 71 70 97 N8 29.98R GREENVILLE CLOUDY 72 66 83 N8 29.98R HAVELOCK PTSUNNY 76 67 73 NW20G25 29.94R KENANSVILLE CLOUDY 70 66 88 N8 29.99R KINSTON CLOUDY 73 66 78 N8 29.98R NEW BERN CLOUDY 73 67 81 NW9G16 29.96R RICHLANDS PTSUNNY 72 66 81 N8 29.98R ROCKY MOUNT PTSUNNY 72 67 84 NW10 29.99R WASHINGTON PTSUNNY 74 67 79 NW9G16 29.94R WHITEVILLE SUNNY 73 67 79 CALM 29.99R $$ AMZ130-135-150-152-154-156-158-170-250-252-270-ANZ085-086-088-633-658-670-191500- MARINE OBSERVATIONS STATION/POSITION TIME TEMP WIND PRES WAVE SWELL AIR SEA DIR/SP/G HT/PER HT/PER (UTC) (F) (DEG/KT/KT) (MB) (FT/S) (FT/S) CHESAPEAKE LIGHT NOT AVBL 64 E VA BEACH 1350 71 71 350/ 33/ 39 1005.2 15/11 11/11 DUCK 1348 71 75 350/ 22/ 29 1009.2 2 E DUCK 1330 75 N/A 14/13 10/13 OREGON INLET 1336 71 74 330/ 18/ 26 1009.0 13E OREGON INLT 1348 74 N/A 15/13 15/13 HATTERAS CG 1348 72 76 340/ 21/ 25 1010.6 DIAMOND BUOY 1350 72 76 340/ 25/ 33 1009.1 11/12 8/12 CAPE LOOKOUT 1400 72 320/ 13/ 17 1012.6 BEAUFORT LAB 1348 73 74 330/ 10/ 17 1012.2 30 SE NEW RVR IN 1308 73 340/ 17/ 23 1013.0 30 SE NEW RVR IN NOT AVBL 27 SE WRIGHTSVLE 1308 73 79 330/ 16/ 21 1013.6 5 SE WRIGHTSVLE 1308 71 78 340/ 16/ 25 1014.0 225 S CAPE HAT 1350 80 80 290/ 14/ 17 1012.6 10/10 10/10 41 SE CHARLESTON 1400 77 82 340/ 8/ 12 1015.3 $$

USA.gov is the U.S. government's official web portal to all federal, state and local government web resources and services.